Date,TemperatureHighF,TemperatureAvgF,TemperatureLowF,DewpointHighF,DewpointAvgF,DewpointLowF,HumidityHigh,HumidityAvg,HumidityLow,PressureMaxIn,PressureMinIn,WindSpeedMaxMPH,WindSpeedAvgMPH,GustSpeedMaxMPH,PrecipitationSumIn
2013-5-1,101.2,82.4,66.3,62.0,45.9,32.2,28,28,28,26.37,26.17,10,4,11,0.00
2013-5-2,104.0,82.4,66.0,64.3,46.0,31.9,28,28,28,26.52,26.27,8,4,12,0.00
2013-5-3,99.5,77.0,56.8,60.5,41.3,24.0,28,28,28,26.45,26.14,37,4,37,0.00
2013-5-4,103.4,81.0,58.8,63.9,44.8,25.7,28,28,28,26.40,26.16,10,4,13,0.00
2013-5-5,99.6,81.4,69.2,60.7,45.1,34.7,28,28,28,26.47,26.23,15,7,15,0.00
2013-5-6,96.0,76.0,62.7,61.3,41.3,29.1,32,29,28,26.51,26.34,10,4,11,0.00
2013-5-7,94.2,74.8,59.5,56.1,39.5,26.4,28,28,28,26.52,26.34,12,5,12,0.00
2013-5-8,92.8,71.4,55.9,54.8,36.6,23.3,28,28,28,26.57,26.39,8,3,10,0.00
2013-5-9,98.4,75.7,59.7,59.6,40.3,26.5,28,28,28,26.54,26.28,8,4,10,0.00
2013-5-10,101.2,75.1,57.2,62.0,39.7,24.3,28,28,28,26.53,26.36,10,3,11,0.00
2013-5-11,100.9,79.7,59.1,61.7,43.7,26.1,28,28,28,26.58,26.39,8,3,11,0.00
2013-5-12,105.6,83.4,64.2,66.5,47.4,30.4,32,29,28,26.65,26.42,13,4,13,0.00
2013-5-13,106.8,87.1,72.6,72.8,52.2,37.6,35,30,28,26.62,26.38,10,4,14,0.00
2013-5-14,107.4,88.4,73.2,79.3,56.5,39.0,42,34,28,26.57,26.34,9,4,11,0.00
2013-5-15,104.9,85.6,66.2,77.3,56.3,35.4,43,37,29,26.54,26.35,14,4,14,0.00
2013-5-16,109.4,86.5,66.0,79.2,56.1,36.2,42,36,28,26.54,26.28,9,4,12,0.00
2013-5-17,105.6,84.3,69.8,74.0,51.1,36.4,39,32,28,26.50,26.33,11,4,13,0.00
2013-5-18,103.2,82.4,68.8,72.6,49.6,34.4,38,32,28,26.52,26.36,10,4,11,0.00
2013-5-19,102.2,81.4,59.5,73.3,50.2,27.2,41,34,28,26.49,26.31,9,4,10,0.00
2013-5-20,98.9,81.6,62.9,67.7,48.8,30.2,40,32,28,26.50,26.30,14,5,14,0.00
2013-5-21,107.6,84.2,57.5,73.8,49.6,24.7,35,30,28,26.50,26.30,8,3,9,0.00
2013-5-22,110.3,86.3,66.9,81.1,53.9,32.7,42,33,28,26.42,26.21,9,4,10,0.00
2013-5-23,108.3,87.6,72.6,75.9,54.5,37.6,38,33,28,26.45,26.26,11,5,13,0.00
2013-5-24,109.5,84.7,63.3,76.9,53.1,29.8,38,34,28,26.51,26.32,12,3,12,0.00
2013-5-25,108.8,85.7,68.0,79.3,56.1,34.5,42,37,28,26.57,26.38,12,4,12,0.00
2013-5-26,108.5,83.1,61.3,76.7,50.4,28.8,38,32,28,26.57,26.38,11,4,11,0.00
2013-5-27,110.3,83.5,59.9,78.0,50.4,26.7,37,32,28,26.50,26.26,9,4,10,0.00
2013-5-28,105.4,82.3,59.0,73.1,50.7,26.4,39,34,28,26.42,26.16,9,4,11,0.00
2013-5-29,105.8,85.1,65.4,78.0,55.7,35.7,46,37,29,26.37,26.19,8,4,12,0.00
2013-5-30,108.5,87.4,66.7,82.4,61.4,39.6,50,42,34,26.42,26.25,9,4,12,0.00
2013-5-31,107.6,87.5,68.5,83.4,65.2,48.7,55,48,38,26.47,26.31,8,4,9,0.00